Regional Weather Roundup
Issued by NWS

Home | Current Version | Previous Version | Graphics & Text | Print | Product List | Glossary Off
Versions: 1 2 3 4 5 6 7 8 9 10 11 12 13 14 15 16 17 18 19 20 21 22 23 24 25 26 27 28 29 30 31 32 33 34 35 36 37 38 39 40 41 42 43 44 45 46 47 48 49 50

000
ASUS43 KMKX 300911
RWRWI

WISCONSIN REGIONAL WEATHER ROUNDUP
NATIONAL WEATHER SERVICE MILWAUKEE/SULLIVAN WI
400 AM CDT SUN AUG 30 2015

NOTE: "FAIR" INDICATES FEW OR NO CLOUDS BELOW 12,000 FEET WITH NO
SIGNIFICANT WEATHER AND/OR OBSTRUCTIONS TO VISIBILITY.

WIZ001-002-006>008-014>016-023>028-301000-
NORTHWEST WISCONSIN

CITY           SKY/WX    TMP DP  RH WIND       PRES   REMARKS
SUPERIOR ARPT  CLOUDY    58  58 100 SW5       29.95S FOG
ASHLAND        CLEAR     60  60 100 S6        29.98S
HAYWARD        CLOUDY    62  60  93 S7        30.01S
SIREN          PTCLDY    61  60  97 CALM      30.00R
CUMBERLAND     CLOUDY    59  57  94 S5        30.02R FOG
RICE LAKE      MOCLDY    58  57  96 CALM      30.03S FOG
CHETEK         PTCLDY   N/A N/A N/A E3        30.03R
LADYSMITH      PTCLDY    60  59  94 SE5       30.05S
EAU CLAIRE     CLEAR     58  57  97 CALM      30.01F
MENOMONIE      FOG       57  57  99 E3        30.02S VSB 1/2
NEW RICHMOND   PTCLDY    60  59  98 S5        30.01S
OSCEOLA        CLOUDY    62  62 100 CALM      30.03R
$$

WIZ003>005-009-010-017-018-301000-
NORTH CENTRAL WISCONSIN

CITY           SKY/WX    TMP DP  RH WIND       PRES   REMARKS
MANITOWISH WTR CLOUDY    60  60 100 SW6       30.04S FOG
ARBOR VITAE    CLOUDY    59  58  96 SW5       30.05R FOG
WOODRUFF       CLOUDY    59  58  96 SW5       30.05R FOG
RHINELANDER    CLOUDY    59  58  96 SW6       30.06S FOG
EAGLE RIVER    CLOUDY    59  59 100 SW5       30.05R FOG
LAND O LAKES   CLOUDY    61  61  99 SW5       30.05R FOG
PHILLIPS       CLOUDY    58  58 100 S5        30.04S
TOMAHAWK       FOG       54  53  97 CALM      30.06S VSB 1/2
MEDFORD        FOG       51  51 100 S3        30.05F VSB 1/4
MERRILL        FOG       50  50 100 CALM      30.07R VSB 1/2
$$

WIZ029-030-035-036-043>047-301000-
CENTRAL WISCONSIN

CITY           SKY/WX    TMP DP  RH WIND       PRES   REMARKS
WAUSAU         FOG       53  52  96 CALM      30.05R VSB 1/4
MOSINEE        LGT RAIN  52  52 100 CALM      30.06S VSB 1/4
MARSHFIELD     FOG       58  54  86 CALM      30.05S VSB 1/2
STEVENS POINT  FOG       52  52  99 CALM      30.06R VSB 1
WAUPACA        CLEAR     55  53  95 CALM      30.05S FOG
WAUTOMA        FOG       58  58 100 CALM      30.06S VSB<1/4
WISC RAPIDS    FOG       56  54  93 CALM      30.06S VSB 1/4
CAMP DOUGLAS   FOG       57  57 100 CALM      30.04S VSB 1/2
$$

WIZ011>013-019>022-031-037>040-048>050-301000-
NORTHEAST WISCONSIN

CITY           SKY/WX    TMP DP  RH WIND       PRES   REMARKS
ANTIGO         FOG       51  51 100 CALM      30.07R VSB 1/2
SHAWANO        FOG       55  54  95 CALM      30.05S VSB<1/4
OCONTO         CLOUDY    52  52 100 CALM      30.04R VSB 1/4
STURGEON BAY     N/A     55  52  88 CALM      30.06S VSB 1/4
GREEN BAY      FOG       59  59 100 CALM      30.05S VSB 1/4
MANITOWOC      FOG       54  53  97 MISG      30.05R VSB 1/4
APPLETON       CLEAR     57  57 100 CALM      30.04R FOG
CLINTONVILLE   FOG       52  52 100 CALM      30.04F VSB 1
OSHKOSH        FOG       58  58 100 CALM      30.05R VSB 1/2
$$

WIZ032>034-041-042-053>061-301000-
SOUTHWEST WISCONSIN

CITY           SKY/WX    TMP DP  RH WIND       PRES   REMARKS
LA CROSSE      CLEAR     59  58  96 SE6       30.03S
SPARTA         CLEAR     57  56  96 E3        30.05S
VIROQUA          N/A     60  60 100 S3        30.05S
BOSCOBEL       MOCLDY    62  61  96 CALM      30.05S FOG
PRAIRIE DU CHI FOG       60  59  96 CALM      30.04S VSB 1
PLATTEVILLE    CLOUDY    65  62  90 CALM      30.05S
$$

WIZ056-057-062-063-064-067-068-301000-
SOUTH CENTRAL WISCONSIN

CITY           SKY/WX    TMP DP  RH WIND       PRES   REMARKS
REEDSBURG      FOG       57  57 100 CALM      30.05S VSB 3/4
BARABOO/DELLS  FOG       59  57  95 CALM      30.05S VSB 1/2
LONE ROCK      CLOUDY    64  62  93 CALM      30.05S
MINERAL POINT  CLOUDY    66  59  77 CALM      30.06S
MADISON        CLOUDY    63  61  93 CALM      30.04F FOG
MIDDLETON      CLOUDY    64  64 100 CALM      30.05F
WATERTOWN      CLOUDY    62  62 100 CALM      30.04S FOG
MONROE         CLOUDY    63  61  94 CALM      30.05S FOG
JANESVILLE     CLOUDY    63  63 100 CALM      30.04R FOG
$$

WIZ051-052-058>065-066-070>072-301000-
SOUTHEAST WISCONSIN

CITY           SKY/WX    TMP DP  RH WIND       PRES   REMARKS
MILWAUKEE      FOG       62  61  96 N5        30.03S VSB 1/4
WAUKESHA       CLOUDY    59  59 100 CALM      30.05S FOG
MILWAUKEE/TIMM CLOUDY    61  59  94 CALM      30.05R FOG
RACINE         FOG       63  61  93 NW5       30.04F VSB 1/2
BURLINGTON     CLOUDY    61  61  99 CALM      30.04S FOG
KENOSHA        CLOUDY    63  62  97 N3        30.03S FOG
FOND DU LAC    FOG       57  56  96 CALM      30.05R VSB 1/4
SHEBOYGAN      FOG       54  54 100 CALM      30.04S VSB 1/2
WEST BEND      MOCLDY    59  59 100 CALM      30.04S FOG
JUNEAU         FOG       60  60  99 CALM      30.06S VSB<1/4
$$

LSZ147-162-301000-
LAKE SUPERIOR

STATION/POSITION TIME  TEMP    WIND        PRES    WAVE
                       AIR SEA DIR/SP/G            HT/PER
                 (UTC) (F)     (DEG/KT/KT) (MB)    (FT/S)
W MID LAKE BUOY  0850   59 54  200/ 12/ 14 1013.8F   1
DEVILS ISLAND    0900   65     190/  9/ 10 1014.1F
PORT WING        0800   61     180/  3/  6 1014.6F
SAXON HARBOR     0840   64     200/  7/ 12 1014.6S
$$

LMZ867-665-643>646-301000-
LAKE MICHIGAN

STATION/POSITION TIME  TEMP    WIND        PRES    WAVE
                       AIR SEA DIR/SP/G            HT/PER
                 (UTC) (F)     (DEG/KT/KT) (MB)    (FT/S)
CHAMBERS ISLAND  0800   60     210/  3/  5 1017.3S
S GREEN BAY BUOY 0900   61 62  240/  4/  4 1018.7R
N MID LAKE BUOY  0850   63 64  220/  6/  8 1016.8F   1
NORTHPORT PIER   0802   60     220/  2/  6 1016.9S
SISTER BAY       0819   62     270/  6/  7   N/A
ALGOMA LAKESHORE 0814             CALM       N/A
SHEBOYGAN LAKESH 0900   54     360/  2/  3 1017.6S
PORT WASHINGTON  0800   54      10/  2/  4 1017.6
ATWATER BUOY     0900   54 49  330/  6/  6 1018.4R
MILWAUKEE LAKESH 0800   61      20/  3/  4   N/A
S MID LAKE BUOY  0850   67 68   20/  4/  4 1015.7F   1
KENOSHA   LAKESH 0900   63     330/  6/  9 1016.6S
$$

TC  - TEMPERATURE IN CELSIUS
VSB - VISIBILITY IN STATUTE MILES
WCI - WIND CHILL INDEX
HX  - HEAT INDEX




USA.gov is the U.S. government's official web portal to all federal, state and local government web resources and services.